Regional Weather Roundup
Issued by NWS Goodland, KS

Home | Current Version | Previous Version | Text Only | Print | Product List | Glossary Off
Versions: 1 2 3 4 5 6 7 8 9 10 11 12 13 14 15 16 17 18 19 20 21 22 23 24 25 26 27 28 29 30 31 32 33 34 35 36 37 38 39 40 41 42 43 44 45 46 47 48 49 50

000
ASUS43 KGLD 221608
RWRGLD

GOODLAND FORECAST AREA HOURLY WEATHER ROUNDUP
NATIONAL WEATHER SERVICE GOODLAND KS
1000 AM MDT FRI AUG 22 2014

...OFFICIAL OBSERVATIONS...

CITY           SKY/WX    TMP DP  RH WIND       PRES   REMARKS
GOODLAND KS    MOSUNNY   79  59  50 NE16      30.06R
HILL CITY KS   MOSUNNY   83  68  60 NE8       29.98S
IMPERIAL NEB   PTSUNNY   74  59  59 N13       30.04R
MCCOOK NEB     MOSUNNY   85  61  44 NE14      29.99F
AKRON CO       PTSUNNY   69  60  73 N10       30.12S
BURLINGTON CO  MOSUNNY   74  56  53 NE15G23   30.09S
LIMON CO       PTSUNNY   70  56  61 NE14      30.16S
$$

...UNOFFICIAL OBSERVATIONS...

CITY           SKY/WX    TMP DP  RH WIND       PRES   REMARKS
COLBY KS       SUNNY     82  70  65 N17G26    30.03R
LENORA KS        N/A     80  32  17 CALM        N/A
NORTON KS      SUNNY     81  63  54 N13G18    29.98R
SHARON SPRINGS   N/A     81  65  58 NE17G24     N/A
WAKEENEY KS      N/A     77  68  74 MISG        N/A
KIT CARSON CO    N/A     75  58  54 MISG        N/A
YUMA CO          N/A     72  60  65 N14         N/A
$$



USA.gov is the U.S. government's official web portal to all federal, state and local government web resources and services.